Starlink 2395

operational
NORAD ID: 47814 Int'l Des: 2021-018 Owner: SPXS Country: US Constellation: starlink
LEOCIRCULARSTARLINK_TYPE

关于 Starlink 2395

正在加载描述...

实时位置

正在加载3D地球...

即将过境

高度历史

Altitude vs Time

uPlot chart will show altitude changes over time

两行轨道根数

1 47814U 21018AD 25303.18167732 .00002856 00000-0 21041-3 0 9996
2 47814 53.0540 117.4927 0000535 70.9259 289.1788 15.06416908256982
Epoch: Oct 30, 2025 • Age: 12 hours

当前状态

高度 557.7 km
速度 7.58 km/s
星下点 -32.84°S, 37.5°E
发射日期 Mar 11, 2021
运行时间 4.6 years
类型 internet

技术详情

分类 Payload
质量 260.00 kg
干质量 248.00 kg
总质量 260.00 kg
长度 0.20 m
直径 2.80 m
跨度 9.00 m
形状 Box + pan
制造商 SPXS
平台类型 Starlink
阶段状态 In Orbit
所有者/国家 SPXS/US

大型星座

Loading constellations...